Simultaneous Nadir Overpasses (SNOs) Predictions

Prediction of SNOs near US between AQUA and NPP Satellite Orbit:

Table of predicted SNOs near US for the next 10.0 days since TLE Epoch: 6/27/2015
Index Date (AQUA) Time (AQUA) AQUA Lat,Lon Date (NPP) Time (NPP) NPP Lat,Lon Distance(km) Time Diff (sec)
1 06/28/2015 07:46:19 20.04, -89.60 06/28/2015 07:39:43 20.02, -89.40 20.76 396
2 06/28/2015 09:20:59 35.26,-110.45 06/28/2015 09:16:52 35.28,-110.68 21.79 247
3 07/01/2015 06:30:54 46.59, -65.03 07/01/2015 06:34:54 46.96, -67.00 155.74 240
4 07/01/2015 08:08:51 49.92, -88.43 07/01/2015 08:15:24 50.41, -90.90 184.71 393
5 07/03/2015 19:06:57 49.94, -92.57 07/03/2015 19:05:39 49.61, -94.38 135.55 78
6 07/03/2015 20:44:35 45.49,-115.54 07/03/2015 20:45:50 45.06,-117.90 190.14 75
7 07/06/2015 06:56:42
